Previsão horária em Plotki

Hoje, 5 Março, Sexta-feira

Tempo Temperatura Precipitação Vento Pressão Humidade
00:00 -5°C° 0 mm 2 m/s 746 mmHg 80%
01:00 -5°C° 0 mm 2 m/s 747 mmHg 81%
02:00 -5°C° 0 mm 2 m/s 747 mmHg 82%
03:00 -5°C° 0 mm 2 m/s 747 mmHg 82%
04:00 -5°C° 0 mm 2 m/s 747 mmHg 83%
05:00 -5°C° 0 mm 2 m/s 747 mmHg 84%
06:00 -5°C° 0.2 mm 2 m/s 747 mmHg 84%
07:00 -3°C° 0.2 mm 1 m/s 747 mmHg 85%
08:00 -3°C° 0.2 mm 1 m/s 748 mmHg 85%
09:00 -4°C° 0.2 mm 2 m/s 748 mmHg 78%
10:00 -4°C° 0.2 mm 2 m/s 748 mmHg 72%
11:00 -4°C° 0.2 mm 3 m/s 749 mmHg 65%
12:00 -4°C° 0.1 mm 3 m/s 749 mmHg 63%
13:00 -4°C° 0.1 mm 3 m/s 750 mmHg 60%
14:00 -4°C° 0.1 mm 3 m/s 750 mmHg 57%
15:00 -4°C° 0.1 mm 3 m/s 750 mmHg 59%
16:00 -5°C° 0.1 mm 3 m/s 751 mmHg 61%
17:00 -4°C° 0.1 mm 2 m/s 751 mmHg 63%
18:00 -5°C° 0 mm 2 m/s 752 mmHg 67%
19:00 -5°C° 0 mm 2 m/s 752 mmHg 70%
20:00 -6°C° 0 mm 2 m/s 753 mmHg 74%
21:00 -6°C° 0 mm 2 m/s 753 mmHg 74%
22:00 -6°C° 0 mm 2 m/s 754 mmHg 75%
23:00 -7°C° 0 mm 2 m/s 754 mmHg 76%

Amanhã, 6 Março, Sábado

Tempo Temperatura Precipitação Vento Pressão Humidade
00:00 -7°C° 0 mm 2 m/s 754 mmHg 77%
01:00 -7°C° 0 mm 2 m/s 754 mmHg 79%
02:00 -8°C° 0 mm 2 m/s 755 mmHg 80%
03:00 -8°C° 0 mm 2 m/s 755 mmHg 82%
04:00 -8°C° 0 mm 2 m/s 755 mmHg 84%
05:00 -8°C° 0 mm 2 m/s 755 mmHg 86%
06:00 -8°C° 0 mm 2 m/s 755 mmHg 86%
07:00 -8°C° 0 mm 2 m/s 755 mmHg 86%
08:00 -7°C° 0 mm 2 m/s 755 mmHg 85%
09:00 -7°C° 0 mm 3 m/s 755 mmHg 78%
10:00 -6°C° 0 mm 3 m/s 755 mmHg 71%
11:00 -5°C° 0 mm 3 m/s 755 mmHg 64%
12:00 -5°C° 0 mm 3 m/s 754 mmHg 60%
13:00 -4°C° 0 mm 4 m/s 754 mmHg 56%
14:00 -3°C° 0 mm 4 m/s 753 mmHg 52%
15:00 -4°C° 0 mm 4 m/s 752 mmHg 54%
16:00 -5°C° 0 mm 5 m/s 751 mmHg 57%
17:00 -5°C° 0 mm 5 m/s 750 mmHg 59%
18:00 -5°C° 0 mm 5 m/s 749 mmHg 61%
19:00 -5°C° 0 mm 6 m/s 748 mmHg 64%
20:00 -4°C° 0 mm 6 m/s 748 mmHg 67%
21:00 -4°C° 0 mm 7 m/s 746 mmHg 66%
22:00 -4°C° 0 mm 7 m/s 745 mmHg 66%
23:00 -4°C° 0 mm 7 m/s 743 mmHg 65%

Depois de amanhã, 7 Março, Domingo

Tempo Temperatura Precipitação Vento Pressão Humidade
00:00 -4°C° 0.3 mm 7 m/s 742 mmHg 73%
01:00 -4°C° 0.3 mm 7 m/s 741 mmHg 82%
02:00 -4°C° 0.3 mm 7 m/s 740 mmHg 91%
03:00 -6°C° 1 mm 7 m/s 739 mmHg 91%
04:00 -6°C° 1 mm 7 m/s 738 mmHg 91%
05:00 -6°C° 1 mm 6 m/s 737 mmHg 91%
06:00 -7°C° 0.3 mm 7 m/s 737 mmHg 86%
07:00 -8°C° 0.3 mm 8 m/s 738 mmHg 81%
08:00 -10°C° 0.3 mm 8 m/s 738 mmHg 75%
09:00 -10°C° 0 mm 8 m/s 738 mmHg 72%
10:00 -8°C° 0 mm 7 m/s 738 mmHg 68%
11:00 -8°C° 0 mm 7 m/s 739 mmHg 64%
12:00 -8°C° 0.1 mm 7 m/s 738 mmHg 64%
13:00 -7°C° 0.1 mm 7 m/s 738 mmHg 63%
14:00 -7°C° 0.1 mm 7 m/s 737 mmHg 62%
15:00 -7°C° 0.5 mm 7 m/s 737 mmHg 70%
16:00 -7°C° 0.5 mm 7 m/s 736 mmHg 79%
17:00 -8°C° 0.5 mm 7 m/s 736 mmHg 87%
18:00 -8°C° 0.5 mm 7 m/s 737 mmHg 81%
19:00 -9°C° 0.5 mm 6 m/s 737 mmHg 74%
20:00 -10°C° 0.5 mm 6 m/s 738 mmHg 67%
21:00 -11°C° 0 mm 5 m/s 739 mmHg 70%
22:00 -11°C° 0 mm 5 m/s 740 mmHg 72%
23:00 -12°C° 0 mm 5 m/s 740 mmHg 74%

8 Março, Segunda-feira

Tempo Temperatura Precipitação Vento Pressão Humidade
00:00 -11°C° 0 mm 4 m/s 741 mmHg 76%
01:00 -12°C° 0 mm 4 m/s 742 mmHg 78%
02:00 -12°C° 0 mm 3 m/s 743 mmHg 80%
03:00 -12°C° 0 mm 3 m/s 744 mmHg 83%
04:00 -12°C° 0 mm 3 m/s 744 mmHg 86%
05:00 -12°C° 0 mm 3 m/s 744 mmHg 89%
06:00 -12°C° 0 mm 3 m/s 745 mmHg 88%
07:00 -12°C° 0 mm 3 m/s 745 mmHg 86%
08:00 -12°C° 0 mm 4 m/s 746 mmHg 85%
09:00 -11°C° 0 mm 4 m/s 746 mmHg 82%
10:00 -11°C° 0 mm 4 m/s 747 mmHg 80%
11:00 -10°C° 0 mm 4 m/s 747 mmHg 77%
12:00 -10°C° 0 mm 4 m/s 748 mmHg 76%
13:00 -10°C° 0 mm 4 m/s 748 mmHg 74%
14:00 -10°C° 0 mm 4 m/s 749 mmHg 72%
15:00 -11°C° 0 mm 4 m/s 749 mmHg 74%
16:00 -11°C° 0 mm 4 m/s 750 mmHg 76%
17:00 -12°C° 0 mm 4 m/s 750 mmHg 77%
18:00 -12°C° 0 mm 3 m/s 751 mmHg 80%
19:00 -13°C° 0 mm 3 m/s 751 mmHg 82%
20:00 -13°C° 0 mm 3 m/s 752 mmHg 85%
21:00 -14°C° 0 mm 3 m/s 753 mmHg 85%
22:00 -14°C° 0 mm 3 m/s 753 mmHg 86%
23:00 -15°C° 0 mm 3 m/s 754 mmHg 87%

9 Março, Terça-feira

Tempo Temperatura Precipitação Vento Pressão Humidade
00:00 -14°C° 0 mm 2 m/s 754 mmHg 88%
01:00 -15°C° 0 mm 2 m/s 754 mmHg 89%
02:00 -15°C° 0 mm 2 m/s 755 mmHg 90%
03:00 -15°C° 0 mm 2 m/s 755 mmHg 91%
04:00 -16°C° 0 mm 2 m/s 755 mmHg 92%
05:00 -16°C° 0 mm 2 m/s 756 mmHg 93%
06:00 -16°C° 0 mm 2 m/s 756 mmHg 91%
07:00 -14°C° 0 mm 1 m/s 756 mmHg 90%
08:00 -13°C° 0 mm 1 m/s 757 mmHg 88%
09:00 -12°C° 0 mm 1 m/s 757 mmHg 82%
10:00 -13°C° 0 mm 2 m/s 757 mmHg 75%
11:00 -10°C° 0 mm 2 m/s 757 mmHg 68%
12:00 -10°C° 0 mm 2 m/s 757 mmHg 67%
13:00 -9°C° 0 mm 2 m/s 756 mmHg 67%
14:00 -9°C° 0 mm 3 m/s 756 mmHg 66%
15:00 -9°C° 0 mm 3 m/s 756 mmHg 67%
16:00 -9°C° 0 mm 3 m/s 755 mmHg 68%
17:00 -9°C° 0 mm 3 m/s 755 mmHg 69%
18:00 -9°C° 0 mm 4 m/s 754 mmHg 69%
19:00 -10°C° 0 mm 5 m/s 754 mmHg 69%
20:00 -10°C° 0 mm 5 m/s 754 mmHg 69%
21:00 -10°C° 0 mm 5 m/s 754 mmHg 71%
22:00 -8°C° 0 mm 5 m/s 753 mmHg 72%
23:00 -8°C° 0 mm 5 m/s 753 mmHg 73%

10 Março, Quarta-feira

Tempo Temperatura Precipitação Vento Pressão Humidade
00:00 -8°C° 0 mm 5 m/s 753 mmHg 76%
01:00 -8°C° 0 mm 5 m/s 753 mmHg 78%
02:00 -8°C° 0 mm 5 m/s 753 mmHg 81%
03:00 -8°C° 0.2 mm 5 m/s 753 mmHg 85%
04:00 -8°C° 0.2 mm 5 m/s 752 mmHg 89%
05:00 -8°C° 0.2 mm 4 m/s 752 mmHg 93%
06:00 -8°C° 0.1 mm 4 m/s 753 mmHg 92%
07:00 -8°C° 0.1 mm 4 m/s 753 mmHg 91%
08:00 -8°C° 0.1 mm 4 m/s 753 mmHg 90%
09:00 -6°C° 0.1 mm 3 m/s 753 mmHg 88%
10:00 -6°C° 0.1 mm 3 m/s 753 mmHg 87%
11:00 -4°C° 0.1 mm 2 m/s 753 mmHg 86%
12:00 -4°C° 0.2 mm 2 m/s 753 mmHg 87%
13:00 -4°C° 0.2 mm 2 m/s 753 mmHg 88%
14:00 -4°C° 0.2 mm 2 m/s 753 mmHg 88%
15:00 -4°C° 0.2 mm 2 m/s 753 mmHg 90%
16:00 -5°C° 0.2 mm 2 m/s 753 mmHg 92%
17:00 -5°C° 0.2 mm 2 m/s 753 mmHg 94%
18:00 -7°C° 0.8 mm 3 m/s 753 mmHg 94%
19:00 -7°C° 0.8 mm 3 m/s 753 mmHg 95%
20:00 -8°C° 0.8 mm 3 m/s 753 mmHg 95%
21:00 -9°C° 0.4 mm 3 m/s 753 mmHg 94%
22:00 -9°C° 0.4 mm 3 m/s 753 mmHg 94%
23:00 -10°C° 0.4 mm 3 m/s 753 mmHg 94%
Mostrar mais

Necessitamos do seu Consentimento

A Meteoprog e os seus Fornecedores de Serviços podem armazenar e aceder a dados pessoais como cookies, identificadores do dispositivo ou outras tecnologias semelhantes existentes no seu dispositivo e processar estes dados para personalizar conteúdos e anúncios, assim como funcionalidades nas redes sociais e análise de tráfego.

  • Armazenar e/ou aceder a informações no seu dispositivo

    Os cookies, identificadores do dispositivo ou outras informações podem ser armazenados ou acedidos no seu dispositivo, para os fins acima indicados.

  • Anúncios e conteúdos personalizados, medição de anúncios e conteúdos, dados sobre o público-alvo e desenvolvimento de produtos

    Os anúncios e os conteúdos podem ser personalizados com base num perfil. Podem ser adicionados dados adicionais para uma maior personalização dos anúncios e dos conteúdos. A eficácia dos anúncios e dos conteúdos pode ser medida. Podem ser obtidas informações sobre o público que visualizou os anúncios e os conteúdos. Estes dados podem ser usados para desenvolver ou melhorar sistemas, softwares ou a experiência do utilizador.

Ao clicar em "Eu concordo”, permitirá o uso de cookies, identificadores do dispositivo e web beacons mencionados ou outras tecnologias semelhantes. As configurações do navegador do seu dispositivo podem ser alteradas.

Para certos fins, podem ser invocados interesses legítimos ao invés de consentimento. Pode ler mais informação sobre este assunto na nossa Política de Privacidade e Cookies.